WS Maaseik 1 Meer informatie WS Maaseik 1


WS Maaseik 2 Meer informatie WS Maaseik 2


Regen radar Meer informatie rain snow radar


Bezoek onze andere website:

Vorige versie
weerstation Maaseik


Bezoek ook eens deze sites:

Weerstation Geleen



We konden geen weer-waarchuwingen ophalen. Ga rechtstreeks naar de Meteoalarm site : www.meteoalarm.eu en controleer daar .

15 daagse weersverwachting Hjørring (DK)

  • Overzicht
  • Per uur
  • 15 dagen
  • Extra
  • Vergelijk
  • Kaarten
  • Dagkaart
  • Meer »
  • Info
  • Statistieken
  • Directe link
    Temp 6h Neerslag Wind  
 04:32     22:19    Daglengte: 17:47 Vandaag
08:00
16°
 
3
14:00
21°
 
4
20:00
18°
3.7 mm
3
 04:33     22:18    Daglengte: 17:45 Morgen
02:00
14°
 
2
08:00
15°
 
4
14:00
16°
0.9 mm
6
20:00
15°
1.4 mm
6
 04:34     22:17    Daglengte: 17:43 Dinsdag 05 Jul
02:00
13°
 
6
08:00
14°
8.1 mm
7
14:00
16°
11.9 mm
8
20:00
14°
 
9
 04:35     22:17    Daglengte: 17:42 Woensdag 06 Jul
02:00
13°
 
7
Locatie info
Region: Nordjylland
Latitude: 57.4598°N
Longitude: 9.9841°E
51 masl
Postcode: 9800
Temp/Neerslag /Baro Onweer/Dauwpunt
    Temp Baro 1h Neerslag Dauwpunt Wind UV Bewolking  
 04:32     22:19    Daglengte: 17:47 Vandaag
08:00
16°
1016.5 hPa
11%
11.5°
3
Windvlaag: 7.5 m/s
20%
09:00
17°
1016.2 hPa   12.3°
4
Windvlaag: 4.3 m/s
20%
10:00
19°
1015.9 hPa
72%
12.7°
6
Windvlaag: 6.3 m/s
15%
11:00
19°
1015.8 hPa
82%
12.3°
4
Windvlaag: 6.2 m/s
39%
12:00
20°
1015.7 hPa
79%
12.8°
4
Windvlaag: 6.4 m/s
16%
13:00
20°
1015.3 hPa
77%
14.3°
4
Windvlaag: 5.7 m/s
18%
14:00
21°
1015.4 hPa
77%
14.8°
4
Windvlaag: 3.2 m/s
33%
15:00
20°
1015.2 hPa 0.8 mm
77%
14.5°
3
Windvlaag: 0.4 m/s
16%
16:00
20°
1015.3 hPa
76%
13.3°
3
Windvlaag: -1.2 m/s
20% warningclass
17:00
19°
1015.2 hPa 1.3 mm
77%
13.5°
3
Windvlaag: -2.4 m/s
31%
18:00
19°
1015.1 hPa 1.5 mm
75%
12.9°
3
Windvlaag: -4.1 m/s
16%
19:00
18°
1014.8 hPa
73%
12.5°
3
Windvlaag: -3.5 m/s
20%
20:00
18°
1014.7 hPa
71%
12.4°
3
Windvlaag: -2.3 m/s
21%
21:00
17°
1014.4 hPa
19%
13.0°
2
Windvlaag: -1.7 m/s
49%
22:00
16°
1014.4 hPa
14%
13.3°
2
Windvlaag: 0.7 m/s
85%
23:00
15°
1014.4 hPa
14%
13.3°
2
Windvlaag: 1 m/s
78%
 04:33     22:18    Daglengte: 17:45 Morgen
00:00
15°
1014.1 hPa
14%
13.4°
2
Windvlaag: 1.3 m/s
64%
01:00
14°
1013.9 hPa
14%
13.3°
3
Windvlaag: 1.4 m/s
50%
02:00
14°
1013.7 hPa
14%
12.9°
2
Windvlaag: 1.8 m/s
52%
03:00
14°
1013.6 hPa
17%
12.4°
3
Windvlaag: 2.3 m/s
55%
04:00
13°
1013.5 hPa
23%
12.2°
3
Windvlaag: 2 m/s
55%
05:00
13°
1013.3 hPa
23%
12.3°
3
Windvlaag: 2.1 m/s
12%
06:00
14°
1013.1 hPa
22%
12.4°
3
Windvlaag: 2.9 m/s
14%
07:00
15°
1013.1 hPa
26%
12.6°
3
Windvlaag: 3.1 m/s
14%
08:00
15°
1013.0 hPa
72%
12.2°
4
Windvlaag: 5.5 m/s
16%
09:00
16°
1012.9 hPa
82%
11.3°
5
Windvlaag: 6.4 m/s
61%
10:00
17°
1012.9 hPa
82%
10.4°
4
Windvlaag: 6.4 m/s
71%
11:00
18°
1012.8 hPa
82%
10.0°
5
Windvlaag: 6.7 m/s
80%
12:00
17°
1012.5 hPa
79%
10.2°
6
Windvlaag: 6.2 m/s
72%
13:00
17°
1012.3 hPa 0.9 mm
82%
13.5°
5
Windvlaag: 5.8 m/s
83%
14:00
16°
1012.4 hPa
82%
13.8°
6
Windvlaag: 6.1 m/s
85%
15:00
16°
1012.4 hPa 1.4 mm
82%
12.2°
6
Windvlaag: 4.2 m/s
86%
16:00
17°
1012.2 hPa
82%
10.5°
6
Windvlaag: 5 m/s
74%
17:00
16°
1012.0 hPa
82%
12.0°
7
Windvlaag: 5.2 m/s
86%
18:00
15°
1011.8 hPa
82%
11.9°
7
Windvlaag: 5.2 m/s
71%
19:00
15°
1011.6 hPa
82%
10.3°
6
Windvlaag: 5.9 m/s
63%
20:00
15°
1011.7 hPa
82%
10.8°
6
Windvlaag: 6.2 m/s
63%
21:00
14°
1011.7 hPa
80%
10.9°
5
Windvlaag: 6 m/s
33%
22:00
14°
1011.6 hPa
72%
11.3°
5
Windvlaag: 6.1 m/s
45%
23:00
13°
1011.6 hPa
29%
11.2°
5
Windvlaag: 6.7 m/s
21%
 04:34     22:17    Daglengte: 17:43 Dinsdag 05 Jul
00:00
13°
1011.7 hPa
69%
11.5°
5
Windvlaag: 6.9 m/s
36%
01:00
13°
1011.5 hPa
32%
11.2°
4
Windvlaag: 7.5 m/s
31%
02:00
13°
1011.5 hPa
31%
10.6°
6
Windvlaag: 7.6 m/s
24%
03:00
13°
1011.4 hPa
30%
9.6°
6
Windvlaag: 7.6 m/s
21%
04:00
13°
1011.4 hPa
68%
9.5°
6
Windvlaag: 7.5 m/s
23%
05:00
13°
1011.3 hPa 2.2 mm
85%
10.7°
6
Windvlaag: 6.7 m/s
84%
06:00
13°
1011.4 hPa 1.4 mm
90%
10.3°
6
Windvlaag: 5.8 m/s
82%
07:00
13°
1011.5 hPa 2.2 mm
92%
10.4°
7
Windvlaag: 6 m/s
90%
08:00
14°
1011.8 hPa 2.2 mm
100%
10.7°
7
Windvlaag: 4.5 m/s
59%
09:00
14°
1012.1 hPa
100%
11.2°
8
Windvlaag: 4.3 m/s
62%
10:00
15°
1012.5 hPa 2.8 mm
100%
13.3°
7
Windvlaag: 4.5 m/s
55%
11:00
15°
1012.6 hPa
95%
13.0°
8
Windvlaag: 5.1 m/s
37%
12:00
15°
1012.8 hPa 3.1 mm
100%
10.9°
8
Windvlaag: 5.2 m/s
85%
13:00
16°
1013.0 hPa 3.1 mm
100%
9.4°
8
Windvlaag: 5.3 m/s
56%
14:00
16°
1013.1 hPa 3.1 mm
96%
8.0°
8
Windvlaag: 4.9 m/s
74%
15:00
16°
1013.1 hPa
99%
8.0°
9
Windvlaag: 5 m/s
65%
16:00
16°
1013.2 hPa
85%
8.0°
9
Windvlaag: 4.1 m/s
69%
17:00
16°
1013.3 hPa
87%
8.5°
9
Windvlaag: 4 m/s
51%
18:00
15°
1013.2 hPa
90%
9.1°
9
Windvlaag: 4.3 m/s
31%
19:00
15°
1013.0 hPa
35%
8.7°
9
Windvlaag: 4.3 m/s
25%
20:00
14°
1013.0 hPa
22%
8.9°
9
Windvlaag: 4.6 m/s
30%
21:00
14°
1013.0 hPa
21%
9.2°
8
Windvlaag: 4.3 m/s
48%
22:00
13°
1013.0 hPa
23%
8.6°
8
Windvlaag: 4.1 m/s
36%
23:00
13°
1012.9 hPa
21%
9.6°
8
Windvlaag: 3.8 m/s
15%
 04:35     22:17    Daglengte: 17:42 Woensdag 06 Jul
00:00
13°
1013.4 hPa
21%
8.6°
8
Windvlaag: 10.4 m/s
15%
01:00
13°
1013.3 hPa
21%
8.8°
8
Windvlaag: 10.6 m/s
18%
02:00
13°
1013.3 hPa
21%
8.5°
7
Windvlaag: 11.4 m/s
16%
03:00
13°
1013.2 hPa
21%
9.1°
7
Windvlaag: 11.5 m/s
20%
04:00
13°
1013.4 hPa
21%
7.7°
7
Windvlaag: 12.9 m/s
9%
05:00
12°
1013.3 hPa
21%
8.6°
7
Windvlaag: 12.7 m/s
20%
06:00
13°
1013.4 hPa
22%
8.9°
7
Windvlaag: 10.7 m/s
19%
07:00
13°
1013.5 hPa
21%
8.7°
7
Windvlaag: 13.1 m/s
19%
Temp/Neerslag /Baro Onweer/Dauwpunt
    Temp Baro Neerslag Dauwpunt Wind Bewolking  
 04:32     22:19    Daglengte: 17:47 Vandaag
08:00
16°
1016.5 hPa   11.5°
3
20%
11:00
19°
1015.8 hPa   12.3°
4
39%
14:00
21°
1015.4 hPa   14.8°
4
33%
17:00
19°
1015.2 hPa 2.2 mm 13.5°
3
31%
20:00
18°
1014.7 hPa 1.5 mm 12.4°
3
21%
23:00
15°
1014.4 hPa   13.3°
2
78%
 04:33     22:18    Daglengte: 17:45 Morgen
02:00
14°
1013.7 hPa   12.9°
2
52%
05:00
13°
1013.3 hPa   12.3°
3
12%
08:00
15°
1013.0 hPa   12.2°
4
16%
11:00
18°
1012.8 hPa   10.0°
5
80%
14:00
16°
1012.4 hPa 0.9 mm 13.8°
6
85%
17:00
16°
1012.0 hPa 1.4 mm 12.0°
7
86%
20:00
15°
1011.7 hPa   10.8°
6
63%
23:00
13°
1011.6 hPa   11.2°
5
21%
 04:34     22:17    Daglengte: 17:43 Dinsdag 05 Jul
02:00
13°
1011.5 hPa   10.6°
6
24%
05:00
13°
1011.3 hPa 2.2 mm 10.7°
6
84%
08:00
14°
1011.8 hPa 5.9 mm 10.7°
7
59%
11:00
15°
1012.6 hPa 2.8 mm 13.0°
8
37%
14:00
16°
1013.1 hPa 9.2 mm 8.0°
8
74%
17:00
16°
1013.3 hPa   8.5°
9
51%
20:00
14°
1013.0 hPa   8.9°
9
30%
23:00
13°
1012.9 hPa   9.6°
8
15%
 04:35     22:17    Daglengte: 17:42 Woensdag 06 Jul
02:00
13°
1013.3 hPa   8.5°
7
16%
05:00
12°
1013.3 hPa   8.6°
7
20%
08:00
14°
1013.8 hPa   7.5°
8
16%
11:00
16°
1013.6 hPa 15.6 mm 6.5°
10
0%
14:00
17°
1014.6 hPa 15.6 mm 7.4°
12
0%
17:00
16°
1015.0 hPa 15.6 mm 9.6°
14
0%
20:00
15°
1014.8 hPa 15.6 mm 10.1°
12
0%
23:00
14°
1014.1 hPa 15.6 mm 9.5°
10
0%
 04:36     22:16    Daglengte: 17:40 Donderdag 07 Jul
02:00
14°
1013.6 hPa 15.6 mm 7.4°
10
0%
05:00
14°
1013.6 hPa 15.6 mm 6.8°
9
0%
08:00
15°
1014.2 hPa 15.6 mm 7.3°
6
0%
11:00
16°
1014.7 hPa 15.6 mm 6.3°
4
1%
14:00
18°
1015.2 hPa 15.6 mm 5.6°
5
1%
17:00
19°
1014.6 hPa 15.6 mm 12.2°
7
0%
20:00
18°
1013.8 hPa 15.6 mm 10.8°
9
0%
23:00
16°
1014.3 hPa 15.6 mm 10.9°
10
1%
 04:37     22:15    Daglengte: 17:38 Vrijdag 08 Jul
02:00
15°
1013.7 hPa 15.6 mm 11.7°
11
1%
05:00
15°
1013.1 hPa 15.6 mm 12.5°
11
1%
08:00
16°
1012.3 hPa 15.6 mm 13.2°
11
1%
11:00
17°
1011.7 hPa 15.6 mm 11.8°
10
1%
14:00
18°
1010.7 hPa 15.6 mm 11.6°
10
1%
17:00
17°
1009.2 hPa 15.8 mm 13.2°
9
0%
20:00
17°
1008.5 hPa 16.4 mm 12.4°
7
0%
23:00
16°
1009.3 hPa 16.8 mm 11.4°
5
1%
 04:39     22:14    Daglengte: 17:35 Zaterdag 09 Jul
02:00
15°
1010.8 hPa 17.4 mm 10.9°
7
1%
05:00
15°
1013.0 hPa 18.1 mm 10.4°
8
1%
08:00
16°
1015.1 hPa 18.1 mm 10.1°
9
0%
11:00
17°
1017.0 hPa 18.1 mm 8.5°
8
0%
14:00
18°
1018.5 hPa 18.1 mm 6.6°
7
0%
17:00
18°
1019.2 hPa 18.1 mm 6.2°
7
0%
20:00
17°
1019.9 hPa 18.1 mm 9.4°
7
0%
23:00
15°
1020.0 hPa 18.1 mm 10.8°
5
1%
 04:40     22:13    Daglengte: 17:33 Zondag 10 Jul
02:00
13°
1019.8 hPa 18.1 mm 10.3°
4
1%
05:00
12°
1019.3 hPa   9.6°
4
1%
08:00
15°
1018.3 hPa 36.3 mm 10.2°
4
1%
14:00
18°
1017.8 hPa 36.3 mm 9.9°
6
1%
20:00
17°
1016.6 hPa 37.5 mm 12.9°
7
1%
 04:42     22:11    Daglengte: 17:29 Maandag 11 Jul
02:00
15°
1015.0 hPa 37.8 mm 11.6°
8
1%
08:00
17°
1014.9 hPa 37.9 mm 11.7°
4
1%
14:00
19°
1015.5 hPa 37.9 mm 11.7°
7
1%
20:00
16°
1014.0 hPa 37.9 mm 11.7°
12
1%
 04:43     22:10    Daglengte: 17:27 Dinsdag 12 Jul
02:00
15°
1012.4 hPa 37.9 mm 10.0°
10
1%
08:00
17°
1014.9 hPa 37.9 mm 10.4°
6
1%
14:00
19°
1017.4 hPa 37.9 mm 10.0°
5
1%
20:00
16°
1014.3 hPa 38.1 mm 14.1°
10
1%
 04:45     22:09    Daglengte: 17:24 Woensdag 13 Jul
02:00
15°
1014.9 hPa 0.3 mm 11.9°
5
47%
08:00
17°
1014.5 hPa 0.5 mm 12.1°
4
50%
14:00
19°
1014.6 hPa 0.2 mm 12.1°
5
46%
20:00
18°
1014.0 hPa 0.2 mm 12.3°
6
45%
 04:46     22:07    Daglengte: 17:21 Donderdag 14 Jul
02:00
15°
1013.6 hPa 0.7 mm 11.8°
5
38%
08:00
17°
1013.5 hPa 0.1 mm 11.6°
4
37%
14:00
19°
1013.6 hPa 0.6 mm 11.9°
5
49%
20:00
18°
1013.1 hPa 0.5 mm 12.2°
5
45%
 04:48     22:06    Daglengte: 17:18 Vrijdag 15 Jul
02:00
15°
1013.2 hPa 0.1 mm 11.2°
4
40%
08:00
17°
1013.4 hPa 0.3 mm 11.8°
3
39%
14:00
19°
1013.8 hPa 0.4 mm 11.9°
3
44%
20:00
18°
1013.2 hPa 0.2 mm 12.1°
4
45%
 04:49     22:05    Daglengte: 17:16 Zaterdag 16 Jul
02:00
15°
1013.1 hPa 0.2 mm 11.4°
3
40%
08:00
17°
1012.7 hPa 0.3 mm 12.1°
2
49%
14:00
20°
1012.1 hPa 0.6 mm 12.1°
2
46%
20:00
18°
1011.2 hPa 0.8 mm 12.5°
3
40%
 04:51     22:03    Daglengte: 17:12 Zondag 17 Jul
02:00
15°
1011.3 hPa 0.2 mm 11.7°
2
39%
08:00
16°
1011.1 hPa 0.4 mm 12.1°
2
55%
14:00
19°
1011.1 hPa 0.5 mm 12.2°
2
48%
20:00
18°
1010.5 hPa 0.8 mm 12.7°
4
48%
 04:53     22:01    Daglengte: 17:08 Maandag 18 Jul
02:00
15°
1010.9 hPa 0.5 mm 11.9°
3
51%
  CAPE Lifted Index Hail Supercell Tornado SRH 3km CL BTM PRES CL TOP PRES Swiss DWD icon SMHI TS
 04:32     22:19    Daglengte: 17:47 Vandaag
08:00 160 J/kg 0.4 K 0 % 0 % 0 % 0 m²/s² 0 0 1.81 2
09:00 439 J/kg -1.6 K 0 % 0 % 0 % 0 m²/s² 0 0 -0.64 2
10:00 685 J/kg -3.0 K 0 % 0 % 0 % 0 m²/s² 0 0 -1.89 2
11:00 897 J/kg -4.1 K 0 % 0 % 0 % 0 m²/s² 0 0 -2.99 80
12:00 776 J/kg -3.6 K 0 % 0 % 0 % 0 m²/s² 0 0 -2.25 2
13:00 603 J/kg -2.4 K 0 % 0 % 0 % 0 m²/s² 0 0 -0.69 2
14:00 215 J/kg -0.8 K 0 % 0 % 0 % 0 m²/s² 0 0 1.54 80
15:00 207 J/kg -0.3 K 0 % 0 % 0 % 0 m²/s² 0 0 1.92 80
16:00 126 J/kg 0.3 K 0 % 0 % 0 % 0 m²/s² 0 0 2.73 95
17:00 52 J/kg 0.8 K 0 % 0 % 0 % 0 m²/s² 0 0 3.68 80
18:00 6 J/kg 1.3 K 0 % 0 % 0 % 0 m²/s² 0 0 4.6 80
19:00 2 J/kg 0.9 K 0 % 0 % 0 % 0 m²/s² 0 0 4.2 80
20:00 0 J/kg 0.6 K 0 % 0 % 0 % 0 m²/s² 0 0 3.9 80
21:00 2 J/kg 0.6 K 0 % 0 % 0 % 0 m²/s² 0 0 3.99 3
22:00 16 J/kg 0.7 K 0 % 0 % 0 % 0 m²/s² 0 0 3.82 3
23:00 62 J/kg 0.5 K 0 % 0 % 0 % 0 m²/s² 0 0 3.71 3
 04:33     22:18    Daglengte: 17:45 Morgen
00:00 124 J/kg -0.1 K 0 % 0 % 0 % 0 m²/s² 0 0 3.17 3
01:00 78 J/kg 0.4 K 0 % 0 % 0 % 0 m²/s² 0 0 3.76 3
02:00 58 J/kg 0.7 K 0 % 0 % 0 % 0 m²/s² 0 0 4.24 3
03:00 70 J/kg 1.2 K 0 % 0 % 0 % 0 m²/s² 0 0 4.74 2
04:00 45 J/kg 1.7 K 0 % 0 % 0 % 0 m²/s² 0 0 4.79 2
05:00 72 J/kg 1.7 K 0 % 0 % 0 % 0 m²/s² 0 0 4.91 2
06:00 115 J/kg 1.3 K 0 % 0 % 0 % 0 m²/s² 0 0 3.91 2
07:00 125 J/kg 1.2 K 0 % 0 % 0 % 0 m²/s² 0 0 3.21 2
08:00 108 J/kg 1.6 K 0 % 0 % 0 % 0 m²/s² 0 0 3.01 2
09:00 24 J/kg 3.0 K 0 % 0 % 0 % 0 m²/s² 0 0 4.11 3
10:00 8 J/kg 2.9 K 0 % 0 % 0 % 0 m²/s² 0 0 4.25 80
11:00 35 J/kg 2.0 K 0 % 0 % 0 % 0 m²/s² 0 0 3.68 3
12:00 261 J/kg 0.0 K 0 % 0 % 0 % 0 m²/s² 0 0 2.16 3
13:00 304 J/kg 0.1 K 0 % 0 % 0 % 0 m²/s² 0 0 1.54 3
14:00 102 J/kg 1.4 K 0 % 0 % 0 % 0 m²/s² 0 0 2.57 80
15:00 9 J/kg 3.5 K 0 % 0 % 0 % 0 m²/s² 0 0 4.88 80
16:00 172 J/kg 2.0 K 0 % 0 % 0 % 0 m²/s² 0 0 3.17 80
17:00 167 J/kg 2.1 K 0 % 0 % 0 % 0 m²/s² 0 0 3.42 3
18:00 153 J/kg 2.0 K 0 % 0 % 0 % 0 m²/s² 0 0 2.45 80
19:00 39 J/kg 2.6 K 0 % 0 % 0 % 0 m²/s² 0 0 2.9 80
20:00 39 J/kg 2.8 K 0 % 0 % 0 % 0 m²/s² 0 0 3.13 80
21:00 114 J/kg 2.5 K 0 % 0 % 0 % 0 m²/s² 0 0 3.04 80
22:00 178 J/kg 2.9 K 0 % 0 % 0 % 0 m²/s² 0 0 3.65 2
23:00 154 J/kg 3.6 K 0 % 0 % 0 % 0 m²/s² 0 0 4.35 2
 04:34     22:17    Daglengte: 17:43 Dinsdag 05 Jul
00:00 172 J/kg 3.3 K 0 % 0 % 0 % 0 m²/s² 0 0 4.38 3
01:00 140 J/kg 4.3 K 0 % 0 % 0 % 0 m²/s² 0 0 5.53 2
02:00 141 J/kg 4.8 K 0 % 0 % 0 % 0 m²/s² 0 0 5.7 2
03:00 123 J/kg 5.9 K 0 % 0 % 0 % 0 m²/s² 0 0 6.44 2
04:00 171 J/kg 5.4 K 0 % 0 % 0 % 0 m²/s² 0 0 6.21 3
05:00 134 J/kg 5.9 K 0 % 0 % 0 % 0 m²/s² 0 0 7.04 3
06:00 124 J/kg 5.8 K 0 % 0 % 0 % 0 m²/s² 0 0 6.73 80
07:00 137 J/kg 5.6 K 0 % 0 % 0 % 0 m²/s² 0 0 6.59 3
08:00 154 J/kg 5.0 K 0 % 0 % 0 % 0 m²/s² 0 0 6.29 3
09:00 239 J/kg 4.2 K 0 % 0 % 0 % 0 m²/s² 0 0 6.42 3
10:00 233 J/kg 4.4 K 0 % 0 % 0 % 0 m²/s² 0 0 5.42 3
11:00 267 J/kg 4.3 K 0 % 0 % 0 % 0 m²/s² 0 0 7.03 3
12:00 219 J/kg 5.1 K 0 % 0 % 0 % 0 m²/s² 0 0 8.76 80
13:00 149 J/kg 5.8 K 0 % 0 % 0 % 0 m²/s² 0 0 9.1 80
14:00 106 J/kg 6.0 K 0 % 0 % 0 % 0 m²/s² 0 0 8.31 80
15:00 67 J/kg 6.2 K 0 % 0 % 0 % 0 m²/s² 0 0 7.64 3
16:00 59 J/kg 5.6 K 0 % 0 % 0 % 0 m²/s² 0 0 6.68 3
17:00 67 J/kg 5.3 K 0 % 0 % 0 % 0 m²/s² 0 0 6.98 3
18:00 82 J/kg 5.2 K 0 % 0 % 0 % 0 m²/s² 0 0 7.51 2
19:00 56 J/kg 5.7 K 0 % 0 % 0 % 0 m²/s² 0 0 8.4 2
20:00 52 J/kg 5.6 K 0 % 0 % 0 % 0 m²/s² 0 0 8.87 1
21:00 38 J/kg 5.8 K 0 % 0 % 0 % 0 m²/s² 0 0 9.43 1
22:00 39 J/kg 5.8 K 0 % 0 % 0 % 0 m²/s² 0 0 9.13 1
23:00 72 J/kg 4.7 K 0 % 0 % 0 % 0 m²/s² 0 0 6.89 2
 04:35     22:17    Daglengte: 17:42 Woensdag 06 Jul
00:00 50 J/kg 5.7 K 0 % 0 % 0 % 0 m²/s² 0 0 8.61 1
01:00 75 J/kg 5.4 K 0 % 0 % 0 % 0 m²/s² 0 0 8.01 2
02:00 67 J/kg 6.0 K 0 % 0 % 0 % 0 m²/s² 0 0 8.82 2
03:00 94 J/kg 5.5 K 0 % 0 % 0 % 0 m²/s² 0 0 9.1 1
04:00 24 J/kg 7.4 K 0 % 0 % 0 % 0 m²/s² 0 0 11.48 1
05:00 37 J/kg 7.2 K 0 % 0 % 0 % 0 m²/s² 0 0 12.09 0
06:00 59 J/kg 6.6 K 0 % 0 % 0 % 0 m²/s² 0 0 11.34 1
07:00 59 J/kg 7.1 K 0 % 0 % 0 % 0 m²/s² 0 0 11.72 1
Temp Baro Wind Neerslag
  EWN Forecast EWN WRFDA DWD ICON FMI HIRLAM MET Norway GFS
 04:32     22:19    Daglengte: 17:47 Vandaag
08:00 15.6° 1016.5 hPa 3.1 m/s 0.0 mm 18.4° 1015.4 hPa 4.3 m/s 0.0 mm 15.8° 1016.6 hPa 2.9 m/s -1.9 mm 15.2° 1016.5 hPa 3.9 m/s 0.0 mm 15.6° 1016.4 hPa 3.1 m/s
11:00 19.3° 1015.8 hPa 4.2 m/s 0.0 mm 19.6° 1015.0 hPa 3.2 m/s 2.6 mm 19.2° 1015.8 hPa 5.1 m/s 0.4 mm 21.0° 1015.8 hPa 4.3 m/s 0.0 mm 19.2° 1015.9 hPa 3.9 m/s
14:00 20.6° 1015.4 hPa 3.6 m/s 0.0 mm 20.3° 1014.4 hPa 3.2 m/s 9.8 mm 20.6° 1015.0 hPa 3.8 m/s 0.4 mm 20.7° 1015.5 hPa 3.8 m/s 0.0 mm 18.8° 1015.5 hPa 1.9 m/s
17:00 19.2° 1015.2 hPa 3.3 m/s 2.2 mm 20.1° 1014.1 hPa 3.0 m/s 10.9 mm 19.1° 1015.1 hPa 3.3 m/s 2.8 mm 19.1° 1015.4 hPa 4.7 m/s 0.0 mm 18.5° 1014.7 hPa 1.7 m/s
20:00 17.5° 1014.7 hPa 2.7 m/s 1.5 mm 18.2° 1013.7 hPa 3.4 m/s 11.0 mm 16.9° 1014.1 hPa 2.8 m/s 2.7 mm 17.5° 1015.6 hPa 3.6 m/s 0.0 mm 17.7° 1014.4 hPa 1.9 m/s
23:00 15.3° 1014.4 hPa 2.3 m/s 0.0 mm 14.4° 1013.7 hPa 3.1 m/s 11.0 mm 14.4° 1014.4 hPa 2.5 m/s 0.0 mm 15.5° 1015.6 hPa 2.1 m/s 0.0 mm 14.4° 1013.9 hPa 2.7 m/s
 04:33     22:18    Daglengte: 17:45 Morgen
02:00 14.0° 1013.7 hPa 2.5 m/s 0.0 mm 11.1° 1012.7 hPa 2.9 m/s 11.0 mm 13.6° 1013.4 hPa 2.5 m/s 0.0 mm 14.4° 1015.3 hPa 1.9 m/s 0.0 mm 14.0° 1013.2 hPa 4.2 m/s
05:00 13.3° 1013.3 hPa 2.7 m/s 0.0 mm 13.7° 1011.6 hPa 3.1 m/s 11.0 mm 13.1° 1013.3 hPa 2.5 m/s 0.0 mm 13.1° 1014.4 hPa 2.3 m/s 0.0 mm 12.7° 1012.7 hPa 4.4 m/s
08:00 15.3° 1013.0 hPa 4.3 m/s 0.0 mm 15.4° 1011.9 hPa 5.2 m/s 11.4 mm 14.9° 1013.0 hPa 5.1 m/s 0.0 mm 15.7° 1014.2 hPa 3.7 m/s 0.0 mm 15.4° 1012.1 hPa 5.8 m/s
11:00 17.6° 1012.8 hPa 4.7 m/s 0.0 mm 17.0° 1010.8 hPa 5.3 m/s 11.7 mm 15.4° 1013.0 hPa 5.6 m/s 0.8 mm 18.1° 1013.8 hPa 4.3 m/s 0.0 mm 16.2° 1011.8 hPa 6.3 m/s
14:00 16.2° 1012.4 hPa 5.5 m/s 0.9 mm 13.6° 1011.3 hPa 6.9 m/s 12.8 mm 15.8° 1012.5 hPa 5.4 m/s 0.8 mm 16.5° 1013.5 hPa 5.1 m/s 0.0 mm 15.7° 1011.4 hPa 7.9 m/s
17:00 16.2° 1012.0 hPa 6.9 m/s 1.4 mm 16.8° 1011.0 hPa 7.3 m/s 15.4 mm 15.2° 1012.1 hPa 5.9 m/s 1.3 mm 16.2° 1012.8 hPa 7.0 m/s 0.0 mm 15.4° 1011.6 hPa 8.5 m/s
20:00 14.8° 1011.7 hPa 6.2 m/s 0.0 mm 15.3° 1010.5 hPa 7.0 m/s 15.4 mm 13.4° 1011.8 hPa 6.0 m/s 1.2 mm 15.0° 1012.3 hPa 5.9 m/s 0.0 mm 13.9° 1011.0 hPa 8.5 m/s
23:00 13.4° 1011.6 hPa 4.7 m/s 0.0 mm 12.8° 1011.0 hPa 4.9 m/s 15.5 mm 12.3° 1011.9 hPa 4.5 m/s 0.2 mm 13.6° 1011.6 hPa 4.1 m/s 0.0 mm 13.0° 1011.4 hPa 7.2 m/s
 04:34     22:17    Daglengte: 17:43 Dinsdag 05 Jul
02:00 12.8° 1011.5 hPa 5.5 m/s 0.0 mm 11.4° 1010.7 hPa 4.1 m/s 16.5 mm 11.8° 1012.3 hPa 4.1 m/s 0.1 mm 13.5° 1011.3 hPa 5.9 m/s 0.0 mm 11.9° 1011.4 hPa 6.5 m/s
05:00 12.8° 1011.3 hPa 5.6 m/s 2.2 mm 13.0° 1010.4 hPa 5.7 m/s 17.9 mm 12.0° 1012.1 hPa 4.3 m/s 0.0 mm 12.4° 1010.7 hPa 6.8 m/s
08:00 13.7° 1011.8 hPa 7.3 m/s 5.9 mm 13.8° 1011.1 hPa 7.4 m/s 18.9 mm 13.7° 1012.3 hPa 5.9 m/s 0.3 mm 13.0° 1011.1 hPa 9.9 m/s
11:00 15.0° 1012.6 hPa 7.7 m/s 2.8 mm 13.8° 1012.4 hPa 6.4 m/s 24.1 mm 14.8° 1013.3 hPa 7.7 m/s 0.2 mm 14.7° 1012.3 hPa 9.4 m/s
14:00 16.2° 1013.1 hPa 8.3 m/s 9.2 mm 16.5° 1012.8 hPa 8.0 m/s 26.6 mm 14.7° 1013.8 hPa 8.1 m/s 0.5 mm 16.0° 1013.0 hPa 10.5 m/s
17:00 15.7° 1013.3 hPa 9.1 m/s 0.0 mm 15.8° 1012.6 hPa 9.0 m/s 26.6 mm 14.8° 1013.5 hPa 8.9 m/s 0.2 mm 15.7° 1013.3 hPa 10.5 m/s
20:00 14.4° 1013.0 hPa 8.7 m/s 0.0 mm 14.1° 1012.5 hPa 8.1 m/s 26.6 mm 14.4° 1013.0 hPa 8.5 m/s 0.0 mm 14.4° 1013.5 hPa 10.0 m/s
23:00 13.3° 1012.9 hPa 8.0 m/s 0.0 mm 13.1° 1012.4 hPa 7.2 m/s 26.7 mm 13.2° 1013.5 hPa 8.0 m/s 0.0 mm 13.7° 1013.5 hPa 9.6 m/s
 04:35     22:17    Daglengte: 17:42 Woensdag 06 Jul
02:00 12.8° 1013.3 hPa 7.3 m/s 0.0 mm 12.6° 1012.8 hPa 7.5 m/s 27.1 mm 12.8° 1013.4 hPa 7.2 m/s 0.0 mm 13.2° 1012.9 hPa 10.3 m/s
05:00 12.3° 1013.3 hPa 7.0 m/s 0.0 mm 11.3° 1012.9 hPa 6.1 m/s 27.8 mm 12.6° 1013.4 hPa 7.2 m/s 0.0 mm 12.8° 1012.5 hPa 11.0 m/s
08:00 13.9° 1013.8 hPa 7.9 m/s 0.0 mm 13.5° 1013.9 hPa 9.4 m/s 28.1 mm 14.0° 1013.8 hPa 7.5 m/s 0.0 mm 13.7° 1013.0 hPa 11.2 m/s
11:00 16.1° 1013.6 hPa 9.7 m/s 15.6 mm 16.1° 1013.6 hPa 9.7 m/s 15.6 mm
14:00 17.3° 1014.6 hPa 12.4 m/s 15.6 mm 17.3° 1014.6 hPa 12.4 m/s 15.6 mm
17:00 15.8° 1015.0 hPa 13.6 m/s 15.6 mm 15.8° 1015.0 hPa 13.6 m/s 15.6 mm
20:00 14.9° 1014.8 hPa 12.1 m/s 15.6 mm 14.9° 1014.8 hPa 12.1 m/s 15.6 mm
23:00 14.4° 1014.1 hPa 10.3 m/s 15.6 mm 14.4° 1014.1 hPa 10.3 m/s 15.6 mm
 04:36     22:16    Daglengte: 17:40 Donderdag 07 Jul
02:00 14.0° 1013.6 hPa 9.9 m/s 15.6 mm 14.0° 1013.6 hPa 9.9 m/s 15.6 mm
05:00 13.6° 1013.6 hPa 9.0 m/s 15.6 mm 13.6° 1013.6 hPa 9.0 m/s 15.6 mm
08:00 14.9° 1014.2 hPa 5.9 m/s 15.6 mm 14.9° 1014.2 hPa 5.9 m/s 15.6 mm
11:00 16.5° 1014.7 hPa 4.4 m/s 15.6 mm 16.5° 1014.7 hPa 4.4 m/s 15.6 mm
14:00 17.8° 1015.2 hPa 4.6 m/s 15.6 mm 17.8° 1015.2 hPa 4.6 m/s 15.6 mm
17:00 18.5° 1014.6 hPa 7.0 m/s 15.6 mm 18.5° 1014.6 hPa 7.0 m/s 15.6 mm
20:00 18.1° 1013.8 hPa 8.7 m/s 15.6 mm 18.1° 1013.8 hPa 8.7 m/s 15.6 mm
23:00 16.3° 1014.3 hPa 10.4 m/s 15.6 mm 16.3° 1014.3 hPa 10.4 m/s 15.6 mm
 04:37     22:15    Daglengte: 17:38 Vrijdag 08 Jul
02:00 15.1° 1013.7 hPa 11.0 m/s 15.6 mm 15.1° 1013.7 hPa 11.0 m/s 15.6 mm
05:00 15.2° 1013.1 hPa 11.3 m/s 15.6 mm 15.2° 1013.1 hPa 11.3 m/s 15.6 mm
08:00 16.3° 1012.3 hPa 10.6 m/s 15.6 mm 16.3° 1012.3 hPa 10.6 m/s 15.6 mm
11:00 17.3° 1011.7 hPa 9.7 m/s 15.6 mm 17.3° 1011.7 hPa 9.7 m/s 15.6 mm
14:00 17.7° 1010.7 hPa 9.6 m/s 15.6 mm 17.7° 1010.7 hPa 9.6 m/s 15.6 mm
17:00 17.4° 1009.2 hPa 9.4 m/s 15.8 mm 17.4° 1009.2 hPa 9.4 m/s 15.8 mm
20:00 17.1° 1008.5 hPa 7.3 m/s 16.4 mm 17.0° 1008.5 hPa 7.3 m/s 16.4 mm
23:00 16.0° 1009.3 hPa 5.4 m/s 16.8 mm 16.0° 1009.3 hPa 5.4 m/s 16.8 mm
 04:39     22:14    Daglengte: 17:35 Zaterdag 09 Jul
02:00 15.5° 1010.8 hPa 7.2 m/s 17.4 mm 15.5° 1010.8 hPa 7.2 m/s 17.4 mm
05:00 14.9° 1013.0 hPa 8.3 m/s 18.1 mm 14.9° 1013.0 hPa 8.3 m/s 18.1 mm
08:00 15.9° 1015.1 hPa 8.5 m/s 18.1 mm 15.9° 1015.1 hPa 8.5 m/s 18.1 mm
11:00 17.3° 1017.0 hPa 8.1 m/s 18.1 mm 17.3° 1017.0 hPa 8.1 m/s 18.1 mm
14:00 18.2° 1018.5 hPa 7.2 m/s 18.1 mm 18.2° 1018.5 hPa 7.2 m/s 18.1 mm
17:00 18.4° 1019.2 hPa 6.6 m/s 18.1 mm 18.4° 1019.2 hPa 6.6 m/s 18.1 mm
20:00 16.6° 1019.9 hPa 6.6 m/s 18.1 mm 16.6° 1019.9 hPa 6.6 m/s 18.1 mm
23:00 14.5° 1020.0 hPa 4.8 m/s 18.1 mm 14.5° 1020.0 hPa 4.8 m/s 18.1 mm
 04:40     22:13    Daglengte: 17:33 Zondag 10 Jul
02:00 13.1° 1019.8 hPa 4.3 m/s 18.1 mm 13.1° 1019.8 hPa 4.3 m/s 18.1 mm
05:00 11.9° 1019.3 hPa 3.8 m/s 18.1 mm 11.9° 1019.3 hPa 3.8 m/s 18.1 mm
08:00 14.9° 1018.3 hPa 4.1 m/s 18.1 mm 14.9° 1018.3 hPa 4.1 m/s 18.1 mm
14:00 18.3° 1017.8 hPa 5.7 m/s 18.1 mm 18.3° 1017.8 hPa 5.7 m/s 18.1 mm
20:00 16.5° 1016.6 hPa 7.1 m/s 18.9 mm 16.5° 1016.6 hPa 7.1 m/s 18.8 mm
 04:42     22:11    Daglengte: 17:29 Maandag 11 Jul
02:00 15.0° 1015.0 hPa 7.7 m/s 18.9 mm 15.0° 1015.0 hPa 7.6 m/s 19.0 mm
08:00 16.7° 1014.9 hPa 3.6 m/s 19.0 mm 16.7° 1014.9 hPa 3.6 m/s 19.0 mm
14:00 18.6° 1015.5 hPa 6.8 m/s 19.0 mm 18.6° 1015.5 hPa 6.8 m/s 19.0 mm
20:00 15.9° 1014.0 hPa 12.2 m/s 19.0 mm 15.9° 1014.0 hPa 12.2 m/s 19.0 mm
 04:43     22:10    Daglengte: 17:27 Dinsdag 12 Jul
02:00 15.2° 1012.4 hPa 9.7 m/s 19.0 mm 15.2° 1012.4 hPa 9.7 m/s 19.0 mm
08:00 17.2° 1014.9 hPa 6.5 m/s 19.0 mm 17.2° 1014.9 hPa 6.5 m/s 19.0 mm
14:00 18.6° 1017.4 hPa 5.4 m/s 19.0 mm 18.6° 1017.4 hPa 5.4 m/s 19.0 mm
20:00 16.5° 1014.3 hPa 9.7 m/s 19.1 mm 16.5° 1014.3 hPa 9.7 m/s 19.1 mm
 04:45     22:09    Daglengte: 17:24 Woensdag 13 Jul
02:00 15.3° 1014.9 hPa 4.7 m/s 0.3 mm
08:00 16.5° 1014.5 hPa 4.1 m/s 0.5 mm
14:00 19.2° 1014.6 hPa 5.0 m/s 0.2 mm
20:00 17.6° 1014.0 hPa 5.8 m/s 0.2 mm
 04:46     22:07    Daglengte: 17:21 Donderdag 14 Jul
02:00 15.4° 1013.6 hPa 4.9 m/s 0.7 mm
08:00 16.6° 1013.5 hPa 4.1 m/s 0.1 mm
14:00 19.1° 1013.6 hPa 5.0 m/s 0.6 mm
20:00 17.9° 1013.1 hPa 5.1 m/s 0.5 mm
 04:48     22:06    Daglengte: 17:18 Vrijdag 15 Jul
02:00 15.2° 1013.2 hPa 4.0 m/s 0.1 mm
08:00 16.6° 1013.4 hPa 3.2 m/s 0.3 mm
14:00 19.2° 1013.8 hPa 3.5 m/s 0.4 mm
20:00 18.0° 1013.2 hPa 3.9 m/s 0.2 mm
 04:49     22:05    Daglengte: 17:16 Zaterdag 16 Jul
02:00 14.8° 1013.1 hPa 2.7 m/s 0.2 mm
08:00 16.5° 1012.7 hPa 2.4 m/s 0.3 mm
14:00 19.8° 1012.1 hPa 1.8 m/s 0.6 mm
20:00 18.4° 1011.2 hPa 3.1 m/s 0.8 mm
 04:51     22:03    Daglengte: 17:12 Zondag 17 Jul
02:00 15.1° 1011.3 hPa 2.3 m/s 0.2 mm
08:00 16.4° 1011.1 hPa 2.0 m/s 0.4 mm
14:00 19.3° 1011.1 hPa 2.1 m/s 0.5 mm
20:00 17.7° 1010.5 hPa 3.8 m/s 0.8 mm
 04:53     22:01    Daglengte: 17:08 Maandag 18 Jul
02:00 15.1° 1010.9 hPa 3.4 m/s 0.5 mm
FMI Hirlam - 7.5 km EWN WRFDA - 12 km DWD ICON - 7 km GFS - 25 km Basiskaart